| time (UTC) | temp C | wind direction | speed KPH | gust KPH | rain 1hr cm | rain 24hr cm | rain mn cm | humidity % | barometer mb |
| 20260509115047 | 22 | 0 | 0.0 | 1.6 | 0.00 | 0.00 | 0.00 | 96 | 1011.1 |
| 20260509114601 | 22 | 0 | 0.0 | 1.6 | 0.00 | 0.00 | 0.00 | 96 | 1011.2 |
| 20260509114047 | 22 | 0 | 0.0 | 0.0 | 0.00 | 0.00 | 0.00 | 96 | 1011.4 |
| 20260509113550 | 22 | 0 | 0.0 | 1.6 | 0.00 | 0.00 | 0.00 | 96 | 1011.8 |
| 20260509113050 | 22 | 0 | 0.0 | 1.6 | 0.00 | 0.00 | 0.00 | 96 | 1011.7 |
| 20260509112546 | 22 | 0 | 0.0 | 1.6 | 0.00 | 0.00 | 0.00 | 96 | 1011.9 |
| 20260509112047 | 22 | 0 | 0.0 | 0.0 | 0.00 | 0.00 | 0.00 | 96 | 1012.0 |
| 20260509111600 | 22 | 0 | 0.0 | 0.0 | 0.00 | 0.00 | 0.00 | 96 | 1012.0 |
| 20260509111048 | 22 | 0 | 0.0 | 0.0 | 0.00 | 0.00 | 0.00 | 96 | 1011.9 |
| 20260509110548 | 22 | 0 | 0.0 | 0.0 | 0.00 | 0.00 | 0.00 | 96 | 1011.9 |
| 20260509110053 | 22 | 0 | 0.0 | 0.0 | 0.00 | 0.00 | 0.00 | 96 | 1012.1 |
| 20260509105546 | 22 | 0 | 0.0 | 0.0 | 0.00 | 0.00 | 0.00 | 96 | 1012.1 |
| 20260509105047 | 22 | 0 | 0.0 | 0.0 | 0.00 | 0.00 | 0.00 | 96 | 1012.0 |
| 20260509104551 | 22 | 0 | 0.0 | 0.0 | 0.00 | 0.00 | 0.00 | 96 | 1012.2 |
| 20260509104046 | 22 | 0 | 0.0 | 0.0 | 0.00 | 0.00 | 0.00 | 96 | 1012.2 |
| 20260509103546 | 22 | 0 | 0.0 | 0.0 | 0.00 | 0.00 | 0.00 | 96 | 1012.3 |
| 20260509103103 | 22 | 0 | 0.0 | 0.0 | 0.00 | 0.00 | 0.00 | 96 | 1012.3 |
| 20260509102548 | 22 | 0 | 0.0 | 0.0 | 0.00 | 0.00 | 0.00 | 96 | 1012.3 |
| 20260509102047 | 22 | 0 | 0.0 | 0.0 | 0.00 | 0.00 | 0.00 | 96 | 1012.1 |
| 20260509101617 | 22 | 0 | 0.0 | 0.0 | 0.00 | 0.00 | 0.00 | 96 | 1012.1 |
| 20260509101046 | 22 | 0 | 0.0 | 0.0 | 0.00 | 0.00 | 0.00 | 96 | 1011.8 |
| 20260509100548 | 22 | 0 | 0.0 | 0.0 | 0.00 | 0.00 | 0.00 | 96 | 1011.4 |
| 20260509100051 | 22 | 0 | 0.0 | 0.0 | 0.00 | 0.00 | 0.00 | 96 | 1011.1 |
| 20260509095547 | 22 | 0 | 0.0 | 0.0 | 0.00 | 0.00 | 0.00 | 96 | 1010.8 |
| 20260509095047 | 22 | 0 | 0.0 | 0.0 | 0.00 | 0.00 | 0.00 | 96 | 1010.8 |
| 20260509094559 | 22 | 0 | 0.0 | 0.0 | 0.00 | 0.00 | 0.00 | 95 | 1010.9 |
| 20260509094047 | 22 | 0 | 0.0 | 0.0 | 0.00 | 0.00 | 0.00 | 95 | 1010.9 |
| 20260509093547 | 22 | 0 | 0.0 | 0.0 | 0.00 | 0.00 | 0.00 | 95 | 1010.9 |
| 20260509093054 | 22 | 0 | 0.0 | 0.0 | 0.00 | 0.00 | 0.00 | 95 | 1010.9 |
| 20260509092546 | 22 | 0 | 0.0 | 0.0 | 0.00 | 0.00 | 0.00 | 95 | 1010.8 |
| 20260509092046 | 22 | 0 | 0.0 | 0.0 | 0.00 | 0.00 | 0.00 | 95 | 1010.8 |
| 20260509091603 | 22 | 0 | 0.0 | 0.0 | 0.00 | 0.00 | 0.00 | 95 | 1010.7 |
| 20260509091047 | 22 | 0 | 0.0 | 0.0 | 0.00 | 0.00 | 0.00 | 95 | 1010.7 |
| 20260509090547 | 22 | 0 | 0.0 | 0.0 | 0.00 | 0.00 | 0.00 | 95 | 1010.8 |
| 20260509085546 | 22 | 0 | 0.0 | 0.0 | 0.00 | 0.00 | 0.00 | 94 | 1010.6 |
| 20260509085046 | 22 | 0 | 0.0 | 0.0 | 0.00 | 0.00 | 0.00 | 94 | 1010.7 |
| 20260509084553 | 22 | 0 | 0.0 | 0.0 | 0.00 | 0.00 | 0.00 | 94 | 1010.8 |
| 20260509084049 | 22 | 0 | 0.0 | 0.0 | 0.00 | 0.00 | 0.00 | 94 | 1010.7 |
| 20260509083547 | 22 | 0 | 0.0 | 0.0 | 0.00 | 0.00 | 0.00 | 94 | 1010.8 |
| 20260509083050 | 22 | 0 | 0.0 | 0.0 | 0.00 | 0.00 | 0.00 | 94 | 1010.9 |
| 20260509082547 | 22 | 0 | 0.0 | 0.0 | 0.00 | 0.00 | 0.00 | 94 | 1011.3 |
| 20260509082047 | 22 | 0 | 0.0 | 0.0 | 0.00 | 0.00 | 0.00 | 94 | 1011.3 |
| 20260509081606 | 22 | 0 | 0.0 | 0.0 | 0.00 | 0.00 | 0.00 | 94 | 1011.4 |
| 20260509081047 | 22 | 0 | 0.0 | 0.0 | 0.00 | 0.00 | 0.00 | 93 | 1011.3 |
| 20260509080546 | 22 | 0 | 0.0 | 0.0 | 0.00 | 0.00 | 0.00 | 93 | 1011.1 |
| 20260509080051 | 22 | 0 | 0.0 | 0.0 | 0.00 | 0.00 | 0.00 | 93 | 1011.1 |
| 20260509075548 | 22 | 0 | 0.0 | 0.0 | 0.00 | 0.00 | 0.00 | 93 | 1011.1 |
| 20260509075051 | 22 | 0 | 0.0 | 0.0 | 0.00 | 0.00 | 0.00 | 93 | 1011.0 |
| 20260509074557 | 22 | 0 | 0.0 | 0.0 | 0.00 | 0.00 | 0.00 | 93 | 1011.0 |
| 20260509074046 | 22 | 0 | 0.0 | 0.0 | 0.00 | 0.00 | 0.00 | 93 | 1011.0 |
| 20260509073550 | 22 | 0 | 0.0 | 0.0 | 0.00 | 0.00 | 0.00 | 93 | 1011.1 |
| 20260509073107 | 22 | 0 | 0.0 | 0.0 | 0.00 | 0.00 | 0.00 | 93 | 1011.1 |
| 20260509072550 | 22 | 0 | 0.0 | 0.0 | 0.00 | 0.00 | 0.00 | 93 | 1011.3 |
| 20260509072046 | 22 | 0 | 0.0 | 0.0 | 0.00 | 0.00 | 0.00 | 92 | 1011.2 |
| 20260509071556 | 22 | 0 | 0.0 | 0.0 | 0.00 | 0.00 | 0.00 | 92 | 1011.2 |
| 20260509071048 | 22 | 0 | 0.0 | 0.0 | 0.00 | 0.00 | 0.00 | 92 | 1011.4 |
| 20260509070547 | 22 | 0 | 0.0 | 0.0 | 0.00 | 0.00 | 0.00 | 92 | 1011.4 |
| 20260509070051 | 22 | 0 | 0.0 | 1.6 | 0.00 | 0.00 | 0.00 | 92 | 1011.4 |
| 20260509065547 | 22 | 0 | 0.0 | 3.2 | 0.00 | 0.00 | 0.00 | 92 | 1011.4 |
| 20260509065047 | 22 | 0 | 0.0 | 3.2 | 0.00 | 0.00 | 0.00 | 92 | 1011.4 |
| 20260509064606 | 22 | 0 | 0.0 | 1.6 | 0.00 | 0.00 | 0.00 | 92 | 1011.2 |
| 20260509064048 | 22 | 0 | 0.0 | 1.6 | 0.00 | 0.00 | 0.00 | 92 | 1010.8 |
| 20260509063548 | 22 | 0 | 0.0 | 1.6 | 0.00 | 0.00 | 0.00 | 92 | 1011.0 |
| 20260509063050 | 23 | 0 | 0.0 | 4.8 | 0.00 | 0.00 | 0.00 | 91 | 1011.0 |
| 20260509062548 | 23 | 0 | 1.6 | 4.8 | 0.00 | 0.00 | 0.00 | 91 | 1011.0 |
| 20260509062047 | 23 | 0 | 0.0 | 4.8 | 0.00 | 0.00 | 0.00 | 91 | 1011.1 |
| 20260509061553 | 23 | 22 | 0.0 | 6.4 | 0.00 | 0.00 | 0.00 | 91 | 1011.0 |
| 20260509061048 | 23 | 12 | 1.6 | 6.4 | 0.00 | 0.00 | 0.00 | 91 | 1010.9 |
| 20260509060548 | 23 | 20 | 0.0 | 4.8 | 0.00 | 0.00 | 0.00 | 91 | 1010.8 |
| 20260509060053 | 23 | 35 | 0.0 | 4.8 | 0.00 | 0.00 | 0.00 | 90 | 1010.8 |
| 20260509055548 | 23 | 37 | 1.6 | 9.7 | 0.00 | 0.00 | 0.00 | 90 | 1010.8 |
| 20260509055050 | 23 | 37 | 0.0 | 9.7 | 0.00 | 0.00 | 0.00 | 90 | 1010.7 |
| 20260509054602 | 23 | 41 | 1.6 | 9.7 | 0.00 | 0.00 | 0.00 | 90 | 1010.8 |
| 20260509054048 | 23 | 0 | 0.0 | 6.4 | 0.00 | 0.00 | 0.00 | 90 | 1010.7 |
| 20260509053548 | 23 | 0 | 0.0 | 6.4 | 0.00 | 0.00 | 0.00 | 90 | 1010.8 |
| 20260509053058 | 23 | 0 | 1.6 | 9.7 | 0.00 | 0.00 | 0.00 | 90 | 1010.8 |
| 20260509052548 | 23 | 0 | 0.0 | 9.7 | 0.00 | 0.00 | 0.00 | 90 | 1010.6 |
| 20260509052047 | 23 | 43 | 1.6 | 8.0 | 0.00 | 0.00 | 0.00 | 90 | 1010.5 |
| 20260509051551 | 23 | 16 | 1.6 | 9.7 | 0.00 | 0.00 | 0.00 | 90 | 1010.2 |
| 20260509051047 | 23 | 0 | 1.6 | 9.7 | 0.00 | 0.00 | 0.00 | 89 | 1010.3 |
| 20260509050546 | 23 | 0 | 0.0 | 4.8 | 0.00 | 0.00 | 0.00 | 89 | 1010.4 |
| 20260509050058 | 23 | 17 | 0.0 | 4.8 | 0.00 | 0.00 | 0.00 | 89 | 1010.3 |
| 20260509045548 | 23 | 0 | 0.0 | 6.4 | 0.00 | 0.00 | 0.00 | 89 | 1010.3 |
| 20260509045048 | 23 | 0 | 0.0 | 6.4 | 0.00 | 0.00 | 0.00 | 88 | 1010.2 |
| 20260509044555 | 23 | 18 | 0.0 | 4.8 | 0.00 | 0.00 | 0.00 | 88 | 1010.2 |
| 20260509044047 | 23 | 0 | 0.0 | 4.8 | 0.00 | 0.00 | 0.00 | 88 | 1010.2 |
| 20260509043548 | 23 | 18 | 0.0 | 3.2 | 0.00 | 0.00 | 0.00 | 88 | 1010.3 |
| 20260509043100 | 23 | 0 | 0.0 | 3.2 | 0.00 | 0.00 | 0.00 | 87 | 1010.3 |
| 20260509042547 | 23 | 0 | 0.0 | 3.2 | 0.00 | 0.00 | 0.00 | 87 | 1010.4 |
| 20260509042048 | 23 | 0 | 0.0 | 4.8 | 0.00 | 0.00 | 0.00 | 87 | 1010.5 |
| 20260509041617 | 23 | 0 | 0.0 | 4.8 | 0.00 | 0.00 | 0.00 | 87 | 1010.6 |
| 20260509041049 | 23 | 0 | 0.0 | 4.8 | 0.00 | 0.00 | 0.00 | 87 | 1010.7 |
| 20260509040547 | 24 | 0 | 0.0 | 6.4 | 0.00 | 0.00 | 0.00 | 87 | 1010.7 |
| 20260509040051 | 24 | 16 | 0.0 | 4.8 | 0.00 | 0.00 | 0.00 | 87 | 1010.7 |
| 20260509035548 | 24 | 15 | 0.0 | 4.8 | 0.00 | 0.00 | 0.00 | 87 | 1010.7 |
| 20260509035047 | 24 | 0 | 0.0 | 4.8 | 0.00 | 0.00 | 0.00 | 87 | 1010.7 |
| 20260509034553 | 24 | 0 | 1.6 | 4.8 | 0.00 | 0.00 | 0.00 | 87 | 1010.5 |
| 20260509034048 | 24 | 15 | 0.0 | 3.2 | 0.00 | 0.00 | 0.00 | 87 | 1010.5 |
| 20260509033549 | 24 | 15 | 0.0 | 3.2 | 0.00 | 0.00 | 0.00 | 86 | 1010.5 |
| 20260509033054 | 24 | 15 | 0.0 | 3.2 | 0.00 | 0.00 | 0.00 | 86 | 1010.6 |
| 20260509032548 | 24 | 0 | 0.0 | 4.8 | 0.00 | 0.00 | 0.00 | 86 | 1010.6 |
| 20260509032049 | 23 | 0 | 0.0 | 4.8 | 0.00 | 0.00 | 0.00 | 86 | 1010.6 |
| 20260509031554 | 23 | 0 | 0.0 | 4.8 | 0.00 | 0.00 | 0.00 | 86 | 1010.5 |
| 20260509031047 | 23 | 0 | 0.0 | 3.2 | 0.00 | 0.00 | 0.00 | 86 | 1010.5 |
| 20260509030547 | 23 | 0 | 0.0 | 3.2 | 0.00 | 0.00 | 0.00 | 86 | 1010.4 |
| 20260509030053 | 23 | 0 | 0.0 | 3.2 | 0.00 | 0.00 | 0.00 | 86 | 1010.2 |
| 20260509025548 | 23 | 0 | 0.0 | 3.2 | 0.00 | 0.00 | 0.00 | 86 | 1010.2 |
| 20260509025046 | 24 | 0 | 0.0 | 3.2 | 0.00 | 0.00 | 0.00 | 85 | 1010.2 |
| 20260509024549 | 24 | 0 | 0.0 | 3.2 | 0.00 | 0.00 | 0.00 | 85 | 1010.1 |
| 20260509024047 | 24 | 0 | 0.0 | 1.6 | 0.00 | 0.00 | 0.00 | 85 | 1010.0 |
| 20260509023546 | 24 | 0 | 0.0 | 3.2 | 0.00 | 0.00 | 0.00 | 85 | 1010.0 |
| 20260509023107 | 24 | 0 | 0.0 | 3.2 | 0.00 | 0.00 | 0.00 | 85 | 1010.0 |
| 20260509022546 | 24 | 0 | 0.0 | 4.8 | 0.00 | 0.00 | 0.00 | 84 | 1010.0 |
| 20260509022046 | 24 | 0 | 0.0 | 1.6 | 0.00 | 0.00 | 0.00 | 84 | 1009.9 |
| 20260509021554 | 24 | 0 | 0.0 | 1.6 | 0.00 | 0.00 | 0.00 | 84 | 1009.8 |
| 20260509021046 | 24 | 0 | 0.0 | 4.8 | 0.00 | 0.00 | 0.00 | 84 | 1009.7 |
| 20260509020547 | 25 | 0 | 0.0 | 4.8 | 0.00 | 0.00 | 0.00 | 83 | 1009.7 |
| 20260509020056 | 25 | 0 | 0.0 | 1.6 | 0.00 | 0.00 | 0.00 | 83 | 1009.6 |
| 20260509015547 | 25 | 0 | 0.0 | 3.2 | 0.00 | 0.00 | 0.00 | 83 | 1009.5 |
| 20260509015046 | 25 | 0 | 0.0 | 4.8 | 0.00 | 0.00 | 0.00 | 82 | 1009.4 |
| 20260509014553 | 25 | 13 | 0.0 | 4.8 | 0.00 | 0.00 | 0.00 | 83 | 1009.4 |
| 20260509014047 | 25 | 0 | 0.0 | 3.2 | 0.00 | 0.00 | 0.00 | 82 | 1009.4 |
| 20260509013547 | 25 | 0 | 0.0 | 3.2 | 0.00 | 0.00 | 0.00 | 82 | 1009.5 |
| 20260509013055 | 25 | 0 | 0.0 | 3.2 | 0.00 | 0.00 | 0.00 | 82 | 1009.5 |
| 20260509012548 | 25 | 0 | 0.0 | 4.8 | 0.00 | 0.00 | 0.00 | 82 | 1009.5 |
| 20260509012047 | 25 | 0 | 0.0 | 4.8 | 0.00 | 0.00 | 0.00 | 82 | 1009.5 |
| 20260509011601 | 25 | 13 | 0.0 | 4.8 | 0.00 | 0.00 | 0.00 | 81 | 1009.5 |
| 20260509011047 | 25 | 13 | 0.0 | 4.8 | 0.00 | 0.00 | 0.00 | 81 | 1009.4 |
| 20260509010547 | 25 | 0 | 0.0 | 1.6 | 0.00 | 0.00 | 0.00 | 81 | 1009.4 |
| 20260509010056 | 25 | 0 | 0.0 | 3.2 | 0.00 | 0.00 | 0.00 | 81 | 1009.2 |
| 20260509005548 | 25 | 0 | 0.0 | 3.2 | 0.00 | 0.00 | 0.00 | 81 | 1009.2 |
| 20260509005047 | 25 | 0 | 0.0 | 3.2 | 0.00 | 0.00 | 0.00 | 80 | 1009.2 |
| 20260509004558 | 25 | 0 | 0.0 | 3.2 | 0.00 | 0.00 | 0.00 | 80 | 1009.2 |
| 20260509004048 | 25 | 0 | 0.0 | 3.2 | 0.00 | 0.00 | 0.00 | 80 | 1009.2 |
| 20260509003548 | 25 | 0 | 0.0 | 3.2 | 0.00 | 0.00 | 0.00 | 80 | 1009.1 |
| 20260509003057 | 26 | 0 | 0.0 | 3.2 | 0.00 | 0.00 | 0.00 | 80 | 1009.0 |
| 20260509002546 | 26 | 0 | 0.0 | 6.4 | 0.00 | 0.00 | 0.00 | 79 | 1009.2 |
| 20260509002047 | 26 | 13 | 1.6 | 4.8 | 0.00 | 0.00 | 0.00 | 79 | 1009.3 |
| 20260509001601 | 26 | 0 | 0.0 | 4.8 | 0.00 | 0.00 | 0.00 | 79 | 1009.2 |
| 20260509001047 | 26 | 13 | 0.0 | 8.0 | 0.00 | 0.00 | 0.00 | 78 | 1009.2 |
| 20260509000547 | 26 | 0 | 0.0 | 8.0 | 0.00 | 0.00 | 0.00 | 78 | 1009.2 |
| 20260509000111 | 26 | 0 | 1.6 | 6.4 | 0.00 | 0.00 | 0.00 | 78 | 1009.3 |
| 20260508235547 | 26 | 0 | 0.0 | 4.8 | 0.00 | 0.00 | 0.00 | 78 | 1009.2 |
| 20260508235047 | 26 | 16 | 0.0 | 6.4 | 0.00 | 0.00 | 0.00 | 78 | 1009.3 |
| 20260508234555 | 26 | 0 | 0.0 | 6.4 | 0.00 | 0.00 | 0.00 | 78 | 1009.2 |
| 20260508234051 | 26 | 17 | 0.0 | 3.2 | 0.00 | 0.00 | 0.00 | 78 | 1009.3 |
| 20260508233547 | 26 | 0 | 0.0 | 6.4 | 0.00 | 0.00 | 0.00 | 78 | 1009.3 |
| 20260508233108 | 26 | 0 | 1.6 | 8.0 | 0.00 | 0.00 | 0.00 | 77 | 1009.3 |
| 20260508232545 | 26 | 19 | 1.6 | 8.0 | 0.00 | 0.00 | 0.00 | 77 | 1009.2 |
| 20260508232045 | 26 | 0 | 1.6 | 6.4 | 0.00 | 0.00 | 0.00 | 77 | 1009.2 |
| 20260508231551 | 26 | 0 | 0.0 | 3.2 | 0.00 | 0.00 | 0.00 | 77 | 1009.2 |
| 20260508231047 | 26 | 0 | 0.0 | 4.8 | 0.00 | 0.00 | 0.00 | 78 | 1009.2 |
| 20260508230547 | 26 | 0 | 0.0 | 6.4 | 0.00 | 0.00 | 0.00 | 77 | 1009.2 |
| 20260508230053 | 26 | 0 | 0.0 | 4.8 | 0.00 | 0.00 | 0.00 | 78 | 1009.2 |
| 20260508225547 | 26 | 0 | 0.0 | 3.2 | 0.00 | 0.00 | 0.00 | 77 | 1009.1 |
| 20260508225048 | 26 | 0 | 0.0 | 3.2 | 0.00 | 0.00 | 0.00 | 77 | 1009.2 |
| 20260508224548 | 26 | 0 | 0.0 | 3.2 | 0.00 | 0.00 | 0.00 | 76 | 1009.3 |
| 20260508224047 | 26 | 0 | 0.0 | 3.2 | 0.00 | 0.00 | 0.00 | 77 | 1009.3 |
| 20260508223549 | 26 | 26 | 0.0 | 6.4 | 0.00 | 0.00 | 0.00 | 77 | 1009.2 |
| 20260508223052 | 26 | 0 | 0.0 | 6.4 | 0.00 | 0.00 | 0.00 | 76 | 1009.3 |
| 20260508222547 | 26 | 0 | 0.0 | 6.4 | 0.00 | 0.00 | 0.00 | 76 | 1009.3 |
| 20260508222046 | 26 | 26 | 1.6 | 6.4 | 0.00 | 0.00 | 0.00 | 76 | 1009.4 |
| 20260508221554 | 26 | 0 | 0.0 | 4.8 | 0.00 | 0.00 | 0.00 | 76 | 1009.3 |
| 20260508221046 | 26 | 0 | 1.6 | 6.4 | 0.00 | 0.00 | 0.00 | 76 | 1009.3 |
| 20260508220545 | 26 | 0 | 1.6 | 6.4 | 0.00 | 0.00 | 0.00 | 75 | 1009.4 |
| 20260508220053 | 26 | 0 | 0.0 | 4.8 | 0.00 | 0.00 | 0.00 | 77 | 1009.5 |
| 20260508215546 | 26 | 0 | 0.0 | 4.8 | 0.00 | 0.00 | 0.00 | 76 | 1009.4 |
| 20260508215047 | 26 | 0 | 0.0 | 4.8 | 0.00 | 0.00 | 0.00 | 75 | 1009.5 |
| 20260508214552 | 26 | 0 | 0.0 | 4.8 | 0.00 | 0.00 | 0.00 | 76 | 1009.4 |
| 20260508214048 | 26 | 0 | 0.0 | 6.4 | 0.00 | 0.00 | 0.00 | 75 | 1009.5 |
| 20260508213547 | 26 | 28 | 0.0 | 6.4 | 0.00 | 0.00 | 0.00 | 77 | 1009.5 |
| 20260508213053 | 26 | 28 | 0.0 | 6.4 | 0.00 | 0.00 | 0.00 | 76 | 1009.6 |
| 20260508212547 | 26 | 28 | 1.6 | 6.4 | 0.00 | 0.00 | 0.00 | 76 | 1009.6 |
| 20260508212047 | 26 | 0 | 0.0 | 6.4 | 0.00 | 0.00 | 0.00 | 77 | 1009.8 |
| 20260508211600 | 26 | 28 | 1.6 | 4.8 | 0.00 | 0.00 | 0.00 | 76 | 1009.8 |
| 20260508211051 | 26 | 0 | 0.0 | 4.8 | 0.00 | 0.00 | 0.00 | 77 | 1009.9 |
| 20260508210547 | 26 | 29 | 1.6 | 4.8 | 0.00 | 0.00 | 0.00 | 76 | 1010.1 |
| 20260508210055 | 26 | 0 | 0.0 | 4.8 | 0.00 | 0.00 | 0.00 | 76 | 1010.1 |
| 20260508205546 | 26 | 0 | 1.6 | 4.8 | 0.00 | 0.00 | 0.00 | 76 | 1010.1 |
| 20260508205046 | 26 | 29 | 0.0 | 6.4 | 0.00 | 0.00 | 0.00 | 75 | 1010.1 |
| 20260508204558 | 26 | 29 | 1.6 | 6.4 | 0.00 | 0.00 | 0.00 | 75 | 1010.2 |
| 20260508204047 | 26 | 29 | 0.0 | 4.8 | 0.00 | 0.00 | 0.00 | 76 | 1010.2 |
| 20260508203550 | 26 | 29 | 0.0 | 4.8 | 0.00 | 0.00 | 0.00 | 76 | 1010.3 |
| 20260508203058 | 26 | 29 | 0.0 | 6.4 | 0.00 | 0.00 | 0.00 | 76 | 1010.3 |
| 20260508202546 | 26 | 0 | 1.6 | 4.8 | 0.00 | 0.00 | 0.00 | 75 | 1010.3 |
| 20260508202050 | 26 | 0 | 0.0 | 4.8 | 0.00 | 0.00 | 0.00 | 74 | 1010.4 |
| 20260508201601 | 26 | 0 | 0.0 | 4.8 | 0.00 | 0.00 | 0.00 | 75 | 1010.5 |
| 20260508201047 | 26 | 30 | 1.6 | 6.4 | 0.00 | 0.00 | 0.00 | 75 | 1010.4 |
| 20260508200547 | 26 | 0 | 1.6 | 6.4 | 0.00 | 0.00 | 0.00 | 76 | 1010.5 |
| 20260508200111 | 26 | 27 | 0.0 | 6.4 | 0.00 | 0.00 | 0.00 | 76 | 1010.5 |
| 20260508195546 | 26 | 0 | 0.0 | 6.4 | 0.00 | 0.00 | 0.00 | 76 | 1010.8 |
| 20260508195047 | 26 | 0 | 0.0 | 3.2 | 0.00 | 0.00 | 0.00 | 76 | 1010.8 |
| 20260508194558 | 26 | 0 | 0.0 | 4.8 | 0.00 | 0.00 | 0.00 | 77 | 1010.8 |
| 20260508194048 | 25 | 0 | 0.0 | 6.4 | 0.00 | 0.00 | 0.00 | 77 | 1010.9 |
| 20260508193546 | 25 | 0 | 1.6 | 6.4 | 0.00 | 0.00 | 0.00 | 75 | 1010.9 |
| 20260508193150 | 25 | 27 | 0.0 | 4.8 | 0.00 | 0.00 | 0.00 | 76 | 1011.1 |
| 20260508192546 | 25 | 28 | 1.6 | 4.8 | 0.00 | 0.00 | 0.00 | 76 | 1011.2 |
| 20260508192046 | 25 | 28 | 0.0 | 6.4 | 0.00 | 0.00 | 0.00 | 76 | 1011.2 |
| 20260508191559 | 25 | 28 | 0.0 | 6.4 | 0.00 | 0.00 | 0.00 | 75 | 1011.3 |
| 20260508191045 | 25 | 27 | 3.2 | 6.4 | 0.00 | 0.00 | 0.00 | 75 | 1011.3 |
| 20260508190546 | 25 | 0 | 0.0 | 6.4 | 0.00 | 0.00 | 0.00 | 76 | 1011.3 |
| 20260508190056 | 25 | 0 | 1.6 | 6.4 | 0.00 | 0.00 | 0.00 | 74 | 1011.5 |
| 20260508185550 | 25 | 33 | 1.6 | 3.2 | 0.00 | 0.00 | 0.00 | 74 | 1011.4 |
| 20260508185046 | 25 | 0 | 0.0 | 4.8 | 0.00 | 0.00 | 0.00 | 74 | 1011.5 |
| 20260508184608 | 25 | 0 | 0.0 | 4.8 | 0.00 | 0.00 | 0.00 | 76 | 1011.5 |
| 20260508184048 | 25 | 34 | 0.0 | 4.8 | 0.00 | 0.00 | 0.00 | 75 | 1011.5 |
| 20260508183548 | 25 | 34 | 0.0 | 3.2 | 0.00 | 0.00 | 0.00 | 74 | 1011.7 |
| 20260508183113 | 25 | 0 | 0.0 | 4.8 | 0.00 | 0.00 | 0.00 | 74 | 1011.8 |
| 20260508182547 | 25 | 34 | 0.0 | 4.8 | 0.00 | 0.00 | 0.00 | 74 | 1011.9 |
| 20260508182046 | 25 | 34 | 0.0 | 4.8 | 0.00 | 0.00 | 0.00 | 74 | 1011.9 |
| 20260508181603 | 25 | 34 | 0.0 | 4.8 | 0.00 | 0.00 | 0.00 | 74 | 1012.0 |
| 20260508181046 | 25 | 34 | 0.0 | 3.2 | 0.00 | 0.00 | 0.00 | 76 | 1012.0 |
| 20260508180546 | 25 | 34 | 0.0 | 3.2 | 0.00 | 0.00 | 0.00 | 76 | 1012.1 |
| 20260508180050 | 25 | 34 | 0.0 | 4.8 | 0.00 | 0.00 | 0.00 | 75 | 1012.3 |
| 20260508175545 | 25 | 0 | 0.0 | 4.8 | 0.00 | 0.00 | 0.00 | 76 | 1012.3 |
| 20260508175048 | 25 | 0 | 0.0 | 3.2 | 0.00 | 0.00 | 0.00 | 75 | 1012.3 |
| 20260508174557 | 25 | 0 | 0.0 | 3.2 | 0.00 | 0.00 | 0.00 | 74 | 1012.3 |
| 20260508174045 | 25 | 0 | 0.0 | 3.2 | 0.00 | 0.00 | 0.00 | 74 | 1012.3 |
| 20260508173546 | 25 | 34 | 0.0 | 3.2 | 0.00 | 0.00 | 0.00 | 75 | 1012.4 |
| 20260508173053 | 24 | 34 | 0.0 | 3.2 | 0.00 | 0.00 | 0.00 | 76 | 1012.5 |
| 20260508172545 | 24 | 0 | 0.0 | 3.2 | 0.00 | 0.00 | 0.00 | 75 | 1012.6 |
| 20260508172047 | 24 | 0 | 0.0 | 4.8 | 0.00 | 0.00 | 0.00 | 75 | 1012.5 |
| 20260508171547 | 23 | 34 | 0.0 | 4.8 | 0.00 | 0.00 | 0.00 | 78 | 1012.6 |
| 20260508171047 | 23 | 34 | 0.0 | 1.6 | 0.00 | 0.00 | 0.00 | 77 | 1012.5 |
| 20260508170548 | 23 | 0 | 0.0 | 3.2 | 0.00 | 0.00 | 0.00 | 78 | 1012.5 |
| 20260508170057 | 23 | 34 | 0.0 | 4.8 | 0.00 | 0.00 | 0.00 | 77 | 1012.8 |
| 20260508165546 | 23 | 34 | 0.0 | 3.2 | 0.00 | 0.00 | 0.00 | 77 | 1012.9 |
| 20260508165048 | 22 | 0 | 0.0 | 3.2 | 0.00 | 0.00 | 0.00 | 79 | 1012.8 |
| 20260508164553 | 22 | 0 | 0.0 | 4.8 | 0.00 | 0.00 | 0.00 | 79 | 1012.8 |
| 20260508164046 | 22 | 0 | 1.6 | 4.8 | 0.00 | 0.00 | 0.00 | 80 | 1013.0 |
| 20260508163545 | 21 | 34 | 0.0 | 3.2 | 0.00 | 0.00 | 0.00 | 82 | 1012.9 |
| 20260508163054 | 21 | 34 | 0.0 | 4.8 | 0.00 | 0.00 | 0.00 | 80 | 1013.2 |
| 20260508162545 | 21 | 0 | 0.0 | 3.2 | 0.00 | 0.00 | 0.00 | 80 | 1013.2 |
| 20260508162047 | 21 | 0 | 1.6 | 3.2 | 0.00 | 0.00 | 0.00 | 79 | 1013.4 |
| 20260508161550 | 21 | 0 | 0.0 | 3.2 | 0.00 | 0.00 | 0.00 | 81 | 1013.5 |
| 20260508161045 | 20 | 0 | 0.0 | 3.2 | 0.00 | 0.00 | 0.00 | 80 | 1013.5 |
| 20260508160545 | 20 | 34 | 0.0 | 3.2 | 0.00 | 0.00 | 0.00 | 81 | 1013.6 |
| 20260508160051 | 20 | 0 | 0.0 | 3.2 | 0.00 | 0.00 | 0.00 | 80 | 1013.7 |
| 20260508155548 | 20 | 0 | 0.0 | 3.2 | 0.00 | 0.00 | 0.00 | 80 | 1013.8 |
| 20260508155048 | 20 | 0 | 0.0 | 3.2 | 0.00 | 0.00 | 0.00 | 79 | 1013.9 |
| 20260508154609 | 20 | 0 | 0.0 | 1.6 | 0.00 | 0.00 | 0.00 | 80 | 1013.9 |
| 20260508154045 | 20 | 0 | 0.0 | 1.6 | 0.00 | 0.00 | 0.00 | 81 | 1013.9 |
| 20260508153546 | 20 | 0 | 0.0 | 1.6 | 0.00 | 0.00 | 0.00 | 80 | 1013.8 |
| 20260508153057 | 20 | 0 | 0.0 | 1.6 | 0.00 | 0.00 | 0.00 | 80 | 1013.9 |
| 20260508152548 | 20 | 0 | 0.0 | 1.6 | 0.00 | 0.00 | 0.00 | 80 | 1014.1 |
| 20260508152047 | 20 | 0 | 0.0 | 1.6 | 0.00 | 0.00 | 0.00 | 80 | 1013.9 |
| 20260508151552 | 19 | 0 | 0.0 | 1.6 | 0.00 | 0.00 | 0.00 | 81 | 1014.0 |
| 20260508151048 | 19 | 34 | 0.0 | 0.0 | 0.00 | 0.00 | 0.00 | 81 | 1014.1 |
| 20260508150550 | 19 | 0 | 0.0 | 1.6 | 0.00 | 0.00 | 0.00 | 81 | 1014.0 |
| 20260508150049 | 19 | 0 | 0.0 | 4.8 | 0.00 | 0.00 | 0.00 | 81 | 1014.2 |
| 20260508145548 | 19 | 0 | 1.6 | 8.0 | 0.00 | 0.00 | 0.00 | 81 | 1014.2 |
| 20260508145049 | 19 | 34 | 0.0 | 8.0 | 0.00 | 0.00 | 0.00 | 80 | 1014.2 |
| 20260508144600 | 18 | 46 | 1.6 | 4.8 | 0.00 | 0.00 | 0.00 | 81 | 1014.1 |
| 20260508144048 | 18 | 0 | 0.0 | 3.2 | 0.00 | 0.00 | 0.00 | 81 | 1014.1 |
| 20260508143548 | 18 | 47 | 0.0 | 3.2 | 0.00 | 0.00 | 0.00 | 81 | 1014.0 |
| 20260508143105 | 18 | 0 | 0.0 | 3.2 | 0.00 | 0.00 | 0.00 | 82 | 1014.0 |
| 20260508142547 | 18 | 0 | 0.0 | 3.2 | 0.00 | 0.00 | 0.00 | 82 | 1014.0 |
| 20260508142048 | 18 | 47 | 0.0 | 3.2 | 0.00 | 0.00 | 0.00 | 82 | 1014.1 |
| 20260508141559 | 18 | 0 | 0.0 | 3.2 | 0.00 | 0.00 | 0.00 | 82 | 1014.1 |
| 20260508141049 | 18 | 0 | 0.0 | 3.2 | 0.00 | 0.00 | 0.00 | 83 | 1014.0 |
| 20260508140547 | 18 | 0 | 0.0 | 1.6 | 0.00 | 0.00 | 0.00 | 82 | 1014.1 |
| 20260508140054 | 17 | 0 | 0.0 | 1.6 | 0.00 | 0.00 | 0.00 | 83 | 1014.2 |
| 20260508135547 | 17 | 0 | 0.0 | 1.6 | 0.00 | 0.00 | 0.00 | 83 | 1014.2 |
| 20260508135050 | 17 | 0 | 0.0 | 0.0 | 0.00 | 0.00 | 0.00 | 83 | 1014.2 |
| 20260508134612 | 17 | 0 | 0.0 | 0.0 | 0.00 | 0.00 | 0.00 | 83 | 1014.3 |
| 20260508134048 | 17 | 0 | 0.0 | 0.0 | 0.00 | 0.00 | 0.00 | 83 | 1014.5 |
| 20260508133548 | 17 | 0 | 0.0 | 0.0 | 0.00 | 0.00 | 0.00 | 83 | 1014.5 |
| 20260508133100 | 17 | 0 | 0.0 | 0.0 | 0.00 | 0.00 | 0.00 | 83 | 1014.6 |
| 20260508132548 | 17 | 0 | 0.0 | 0.0 | 0.00 | 0.00 | 0.00 | 84 | 1014.6 |
| 20260508132048 | 17 | 0 | 0.0 | 0.0 | 0.00 | 0.00 | 0.00 | 84 | 1014.6 |
| 20260508131556 | 17 | 0 | 0.0 | 0.0 | 0.00 | 0.00 | 0.00 | 84 | 1014.3 |
| 20260508131049 | 17 | 0 | 0.0 | 0.0 | 0.00 | 0.00 | 0.00 | 83 | 1014.3 |
| 20260508130548 | 17 | 0 | 0.0 | 1.6 | 0.00 | 0.00 | 0.00 | 83 | 1014.3 |
| 20260508130055 | 17 | 0 | 0.0 | 1.6 | 0.00 | 0.00 | 0.00 | 83 | 1014.3 |
| 20260508125549 | 17 | 0 | 0.0 | 0.0 | 0.00 | 0.00 | 0.00 | 83 | 1014.5 |
| 20260508125048 | 17 | 0 | 0.0 | 0.0 | 0.00 | 0.00 | 0.00 | 83 | 1014.4 |
| 20260508124602 | 17 | 0 | 0.0 | 0.0 | 0.00 | 0.00 | 0.00 | 83 | 1014.5 |
| 20260508124048 | 17 | 0 | 0.0 | 0.0 | 0.00 | 0.00 | 0.00 | 84 | 1014.4 |
| 20260508123548 | 17 | 0 | 0.0 | 0.0 | 0.00 | 0.00 | 0.00 | 83 | 1014.4 |
| 20260508123053 | 17 | 0 | 0.0 | 0.0 | 0.00 | 0.00 | 0.00 | 82 | 1014.4 |
| 20260508122548 | 17 | 0 | 0.0 | 0.0 | 0.00 | 0.00 | 0.00 | 83 | 1014.3 |
| 20260508122047 | 17 | 0 | 0.0 | 0.0 | 0.00 | 0.00 | 0.00 | 83 | 1014.4 |
| 20260508121548 | 17 | 0 | 0.0 | 0.0 | 0.00 | 0.00 | 0.00 | 83 | 1014.4 |
| 20260508121047 | 17 | 0 | 0.0 | 0.0 | 0.00 | 0.00 | 0.00 | 83 | 1014.7 |
| 20260508120548 | 17 | 0 | 0.0 | 0.0 | 0.00 | 0.00 | 0.00 | 83 | 1014.7 |
| 20260508120052 | 17 | 0 | 0.0 | 0.0 | 0.00 | 0.00 | 0.00 | 83 | 1014.9 |
| 20260508115548 | 17 | 0 | 0.0 | 0.0 | 0.00 | 0.00 | 0.00 | 84 | 1015.0 |